ソーホー彗星

P/1999 J6 = P/2004 V9 = P/2010 H3 ( SOHO ) 2021

English version
Home page
Updated on January 8, 2021

---------------------------------------------------------------------

・ プロフィール

・ 軌道要素

T 2010 Apr. 19.89211 TT                                 MPC
q   0.0475735            (2000.0)            P               Q
n   0.18124419     Peri.   24.86064     -0.19325801     -0.89747800
a   3.0923833      Node    78.34830     +0.81884425     -0.37013981
e   0.9846159      Incl.   23.87902     +0.54050479     +0.23985364
P   5.44

・ 光度変化

        m1 = 24.0 + 5 logΔ + 15.0 log r

---------------------------------------------------------------------

軌道要素はM.P.E.C. 2010-J28に掲載されたものです。
光度グラフはComet for Windowsで作成したものです。

---------------------------------------------------------------------

Copyright(C) Seiichi Yoshida (comet@aerith.net). All rights reserved.